Pipestone, MN

7:22 AM CST on January 22, 2018 (GMT -0600)
Pipestone Municipal

Weather History for KPQN - October, 2011

Change the Weather History Date:

Monday, October 24, 2011

  Actual Average Record
Temperature  
Mean Temperature 54 °F -  
Max Temperature 69 °F 52 °F 73 °F (2014)
Min Temperature 39 °F 34 °F 23 °F (2002)
Degree Days  
Heating Degree Days 11    
Growing Degree Days 4 (Base 50)    
Moisture  
Dew Point 36 °F    
Average Humidity 62    
Maximum Humidity 93    
Minimum Humidity 20    
Precipitation  
Precipitation 0.00 in - - ()
Sea Level Pressure  
Sea Level Pressure 29.99 in    
Wind  
Wind Speed 3 mph (WSW)    
Max Wind Speed 7 mph    
Max Gust Speed -    
Visibility 10 miles    
Events Thunderstorm    
Averages and records for this station are not official NWS values.
T = Trace of Precipitation, MM = Missing Value Source: NWS Daily Summary

Daily Weather History Graph

Daily Weather History Graph

Search for Another Location

Airport or City:

Trip Planner

Search our weather history database for the weather conditions in past years. The results will help you decide how hot, cold, wet, or windy it might be!

Date:

Astronomy

Oct. 24, 2011 Rise Set
Actual Time 7:50 AM CDT 6:27 PM CDT
Civil Twilight 7:21 AM CDT 6:56 PM CDT
Nautical Twilight 6:47 AM CDT 7:30 PM CDT
Astronomical Twilight 6:14 AM CDT 8:03 PM CDT
Moon 5:06 AM CDT (10/24) 4:55 PM CDT (10/24)
Length of Visible Light 11h 35m
Length of Day
10h 36m
Waning Crescent, 7% of the Moon is Illuminated
Oct 24
Waning Crescent
Oct 26
New
Nov 2
First Quarter
Nov 10
Full
Nov 18
Last Quarter

Hourly Weather History & Observations

Time (CDT) Temp. Windchill Dew Point Humidity Pressure Visibility Wind Dir Wind Speed Gust Speed Precip Events Conditions
12:12 AM 46.4 °F 45.2 °F 39.2 °F 76% 29.97 in 10.0 mi ESE 3.5 mph - N/A   Clear
12:32 AM 44.6 °F - 39.2 °F 81% 29.97 in 10.0 mi Calm Calm - N/A   Clear
12:52 AM 42.8 °F - 39.2 °F 87% 29.98 in 10.0 mi Calm Calm - N/A   Clear
1:12 AM 42.8 °F - 39.2 °F 87% 29.98 in 10.0 mi Calm Calm - N/A   Clear
1:32 AM 42.8 °F - 37.4 °F 81% 29.98 in 10.0 mi Calm Calm - N/A   Clear
1:52 AM 39.2 °F 37.0 °F 37.4 °F 93% 29.99 in 10.0 mi WSW 3.5 mph - N/A   Clear
2:11 AM 41.0 °F 38.0 °F 37.4 °F 87% 29.99 in 10.0 mi SW 4.6 mph - N/A   Clear
2:32 AM 41.0 °F 39.0 °F 37.4 °F 87% 29.99 in 10.0 mi SW 3.5 mph - N/A   Clear
2:52 AM 41.0 °F 39.0 °F 37.4 °F 87% 29.99 in 10.0 mi SW 3.5 mph - N/A   Clear
3:12 AM 39.2 °F 37.0 °F 37.4 °F 93% 30.00 in 10.0 mi WSW 3.5 mph - N/A   Clear
3:32 AM 39.2 °F 35.9 °F 37.4 °F 93% 30.00 in 10.0 mi SW 4.6 mph - N/A   Clear
3:52 AM 41.0 °F 37.1 °F 37.4 °F 87% 29.99 in 10.0 mi SW 5.8 mph - N/A   Clear
4:12 AM 41.0 °F 38.0 °F 37.4 °F 87% 29.99 in 10.0 mi SW 4.6 mph - N/A   Clear
4:32 AM 42.8 °F - 39.2 °F 87% 29.99 in 10.0 mi Calm Calm - N/A   Clear
4:52 AM 42.8 °F 39.3 °F 39.2 °F 87% 30.00 in 10.0 mi SW 5.8 mph - N/A   Clear
5:12 AM 42.8 °F 41.1 °F 39.2 °F 87% 30.00 in 10.0 mi SSW 3.5 mph - N/A   Clear
5:32 AM 44.6 °F 42.2 °F 39.2 °F 81% 29.99 in 10.0 mi SSW 4.6 mph - N/A   Clear
6:12 AM 42.8 °F 41.1 °F 39.2 °F 87% 30.00 in 10.0 mi SW 3.5 mph - N/A   Clear
6:32 AM 42.8 °F 39.3 °F 39.2 °F 87% 30.00 in 10.0 mi WSW 5.8 mph - N/A   Clear
6:52 AM 42.8 °F 39.3 °F 39.2 °F 87% 30.01 in 10.0 mi WSW 5.8 mph - N/A   Clear
7:12 AM 39.2 °F 35.0 °F 37.4 °F 93% 30.01 in 10.0 mi WSW 5.8 mph - N/A   Clear
7:32 AM 39.2 °F 37.0 °F 37.4 °F 93% 30.01 in 10.0 mi WSW 3.5 mph - N/A   Clear
7:52 AM 41.0 °F 37.1 °F 37.4 °F 87% 30.01 in 10.0 mi West 5.8 mph - N/A   Clear
8:13 AM 39.2 °F 35.9 °F 37.4 °F 93% 30.02 in 10.0 mi West 4.6 mph - N/A   Clear
8:32 AM 41.0 °F 37.1 °F 37.4 °F 87% 30.03 in 10.0 mi West 5.8 mph - N/A   Clear
8:52 AM 42.8 °F 40.1 °F 39.2 °F 87% 30.03 in 10.0 mi WSW 4.6 mph - N/A   Clear
9:12 AM 44.6 °F 43.1 °F 42.8 °F 93% 30.03 in 10.0 mi WNW 3.5 mph - N/A   Clear
9:32 AM 48.2 °F - 42.8 °F 82% 30.03 in 10.0 mi WNW 4.6 mph - N/A   Scattered Clouds
9:52 AM 50.0 °F - 39.2 °F 66% 30.02 in 10.0 mi NW 4.6 mph - N/A   Mostly Cloudy
10:12 AM 50.0 °F - 41.0 °F 71% 30.03 in 10.0 mi WNW 4.6 mph - N/A   Mostly Cloudy
10:32 AM 51.8 °F - 41.0 °F 67% 30.03 in 10.0 mi NW 6.9 mph - N/A   Overcast
10:52 AM 53.6 °F - 39.2 °F 58% 30.03 in 10.0 mi NNW 5.8 mph - N/A   Scattered Clouds
11:12 AM 55.4 °F - 42.8 °F 63% 30.03 in 10.0 mi Calm Calm - N/A   Clear
11:32 AM 57.2 °F - 44.6 °F 63% 30.03 in 10.0 mi Calm Calm - N/A   Clear
11:52 AM 59.0 °F - 42.8 °F 55% 30.03 in 10.0 mi West 3.5 mph - N/A   Clear
12:11 PM 60.8 °F - 42.8 °F 52% 30.03 in 10.0 mi WNW 4.6 mph - N/A   Clear
12:32 PM 62.6 °F - 42.8 °F 48% 30.03 in 10.0 mi WNW 4.6 mph - N/A   Clear
12:52 PM 64.4 °F - 39.2 °F 40% 30.02 in 10.0 mi West 5.8 mph - N/A   Clear
1:12 PM 66.2 °F - 33.8 °F 30% 30.02 in 10.0 mi West 4.6 mph - N/A   Clear
1:32 PM 66.2 °F - 33.8 °F 30% 30.01 in 10.0 mi WSW 3.5 mph - N/A   Clear
1:52 PM 66.2 °F - 26.6 °F 23% 30.00 in 10.0 mi WNW 6.9 mph - N/A   Clear
2:12 PM 68.0 °F - 26.6 °F 21% 29.99 in 10.0 mi West 3.5 mph - N/A   Clear
2:32 PM 68.0 °F - 26.6 °F 21% 29.98 in 10.0 mi NW 3.5 mph - N/A   Clear
2:52 PM 68.0 °F - 30.2 °F 24% 29.97 in 10.0 mi WSW 3.5 mph - N/A   Clear
3:12 PM 69.8 °F - 28.4 °F 21% 29.96 in 10.0 mi West 3.5 mph - N/A Thunderstorm Clear
3:32 PM 69.8 °F - 28.4 °F 21% 29.96 in 10.0 mi Calm Calm - N/A   Clear
3:52 PM 66.2 °F - 30.2 °F 26% 29.96 in 10.0 mi Calm Calm - N/A   Clear
4:11 PM 68.0 °F - 28.4 °F 23% 29.95 in 10.0 mi Calm Calm - N/A   Clear
4:32 PM 68.0 °F - 28.4 °F 23% 29.94 in 10.0 mi Calm Calm - N/A   Clear
4:52 PM 69.8 °F - 26.6 °F 20% 29.94 in 10.0 mi Calm Calm - N/A   Clear
5:12 PM 68.0 °F - 28.4 °F 23% 29.93 in 10.0 mi ESE 4.6 mph - N/A   Clear
5:52 PM 64.4 °F - 30.2 °F 28% 29.92 in 10.0 mi East 4.6 mph - N/A   Clear
6:12 PM 62.6 °F - 30.2 °F 30% 29.92 in 10.0 mi East 4.6 mph - N/A   Clear
6:32 PM 60.8 °F - 30.2 °F 31% 29.92 in 10.0 mi East 5.8 mph - N/A   Clear
6:52 PM 60.8 °F - 30.2 °F 31% 29.92 in 10.0 mi East 5.8 mph - N/A   Clear
7:12 PM 60.8 °F - 30.2 °F 31% 29.92 in 10.0 mi East 6.9 mph - N/A   Clear
7:32 PM 59.0 °F - 33.8 °F 39% 29.92 in 10.0 mi ENE 8.1 mph - N/A   Clear
7:52 PM 57.2 °F - 37.4 °F 48% 29.92 in 10.0 mi East 8.1 mph - N/A   Clear
8:12 PM 57.2 °F - 37.4 °F 48% 29.92 in 10.0 mi East 6.9 mph - N/A   Clear
8:32 PM 55.4 °F - 35.6 °F 47% 29.92 in 10.0 mi ENE 8.1 mph - N/A   Clear
9:12 PM 55.4 °F - 37.4 °F 51% 29.92 in 10.0 mi ENE 9.2 mph - N/A   Clear
9:32 PM 53.6 °F - 39.2 °F 58% 29.91 in 10.0 mi ENE 10.4 mph - N/A   Clear
9:52 PM 53.6 °F - 42.8 °F 67% 29.91 in 10.0 mi East 9.2 mph 16.1 mph N/A   Clear
10:12 PM 53.6 °F - 42.8 °F 67% 29.90 in 10.0 mi East 10.4 mph 17.3 mph N/A   Clear
10:32 PM 53.6 °F - 42.8 °F 67% 29.90 in 10.0 mi East 12.7 mph 19.6 mph N/A   Clear
10:51 PM 51.8 °F - 42.8 °F 71% 29.89 in 10.0 mi East 10.4 mph 17.3 mph N/A   Clear
11:09 PM 53.6 °F - 42.8 °F 67% 29.88 in 10.0 mi East 9.2 mph - N/A   Clear
11:18 PM 53.6 °F - 42.8 °F 67% 29.88 in 10.0 mi East 9.2 mph - N/A   Clear
11:52 PM 53.6 °F - 42.8 °F 67% 29.85 in 10.0 mi East 10.4 mph 17.3 mph N/A   Clear